STARLINK-34351, 64387

Orbit data source: Space-Track

STARLINK-34351, 64387 is a payload satellite owned by SpaceX/Seattle (US) in LEO that was launched on Fri, 13 Jun 2025 UTC via an FALCON 9 launch vehicle from the Air Force Eastern Test Range (AFETR). Payload-class satellites include a variety of spacecraft equipped with specific instruments for various scientific and technological missions. These include communications satellites like Starlink; space stations such as the ISS; scientific satellites like the Hubble; Earth observation satellites from companies like Planet Labs, Umbra, and HawkEye 360; GPS; miniature CubeSats for education and research; and military/defense satellites.

Loading next visibility...
Identifier
64387, 2025-127T
Orbit
LEO
Country
Flag of USUS
Related business
Manufacturer
SpaceX/Seattle
Mission
Operational Commercial Communications
Bus & Motor
STARLINK V2MO, Unknown motor
Mass
575 kg wet, ~530 kg dry
Launch date (UTC)
2025-06-13 (10 months ago)
Launch vehicle
FALCON 9
Launch site
Air Force Eastern Test Range (AFETR)
Object type
Payload
Rocket body
Debris
Shape & HBR
Box + 2 Pan, 17.7 m
Radar Cross Section
36.964 m², Large (>1 m²)

Expand to show TLE details & history
Last TLE update: 12 hours ago

TLE from 12 hours ago
0 STARLINK-34351
1 64387U 25127T   26095.18786513  .00044812  00000-0  16270-2 0  9993
2 64387  43.0025  29.7820 0001557 233.9125 126.1583 15.27601284 46524
Epoch: 2026-04-05T04:30Z
TLE epoch observation values (Epoch: 2026-04-05T04:30:31.547Z)
Latitude
0.00002°
Longitude
128.65369°
Altitude
483.391 km
Speed
7.625 km/s
True Right ascension
01h 59m 07s
True Declination
0° 00' 00"
Sunlit
Object was in daylight at epoch
Visualization orbit readout
Latitude
Unknown
Longitude
Unknown
Altitude
Unknown
Speed
Unknown
Apparent Right ascension
Unknown
Apparent Declination
Unknown
Sunlit
N/A
Visualization observer readout
Local Sidereal Time
22:14:22
Azimuth
Unknown
Elevation
Unknown
Doppler factor
Unknown
Orbital elements
Apogee altitude
485.999 km
Perigee altitude
483.862 km
Semi-major axis
6,863.067 km
Eccentricity
0.00016
Inclination
43.0025°
RAAN
29.782°
Arg. of periapsis
233.9125°
True anomaly
126.1727°
Mean anomaly
126.1583°
Eccentric anomaly
126.1655°
Mean motion
3.81738 °/min
Orbital period
94.31 mins
BSTAR
0.001627
Loading maneuver chart data...
Computing Atmospheric mass density...
Loading historical data...
Loading historical data...
Loading historical data...
Loading historical data...
Loading historical data...
Loading historical data...
Loading historical data...

Documentation

Showing up to 5 results
|